• In Österreich
  • Länderverzeichnis
  • Für 7 Tage
  • Wassertemperatur
  • Satellitenkarten
  • Wetterkarte
  • News
  • Widgets
  • user-avatar
    Anmelden

    Stündliche Wetter Suluova

    Heute, 23 Oktober, Dienstag

    Zeit Temperatur Niederschläge Wind Luftdruck Luftfeuchtigkeit
    00:00 +14°C° 0 mm 1 m/S 715 mmHg 90%
    01:00 +12°C° 0 mm 0 m/S 715 mmHg 90%
    02:00 +13°C° 0 mm 0 m/S 715 mmHg 92%
    03:00 +12°C° 0 mm 0 m/S 715 mmHg 92%
    04:00 +12°C° 0 mm 0 m/S 715 mmHg 92%
    05:00 +12°C° 0 mm 0 m/S 715 mmHg 92%
    06:00 +13°C° 0 mm 0 m/S 715 mmHg 88%
    07:00 +14°C° 0 mm 0 m/S 715 mmHg 83%
    08:00 +15°C° 0 mm 0 m/S 715 mmHg 78%
    09:00 +17°C° 0 mm 0 m/S 715 mmHg 70%
    10:00 +20°C° 0 mm 1 m/S 715 mmHg 61%
    11:00 +22°C° 0 mm 1 m/S 715 mmHg 53%
    12:00 +22°C° 0.1 mm 1 m/S 714 mmHg 51%
    13:00 +23°C° 0.1 mm 1 m/S 714 mmHg 49%
    14:00 +23°C° 0.1 mm 1 m/S 713 mmHg 47%
    15:00 +22°C° 0.1 mm 1 m/S 713 mmHg 53%
    16:00 +20°C° 0.1 mm 1 m/S 713 mmHg 59%
    17:00 +19°C° 0.1 mm 1 m/S 712 mmHg 66%
    18:00 +18°C° 0 mm 1 m/S 712 mmHg 70%
    19:00 +18°C° 0 mm 1 m/S 712 mmHg 75%
    20:00 +16°C° 0 mm 1 m/S 712 mmHg 79%
    21:00 +16°C° 0 mm 1 m/S 712 mmHg 82%
    22:00 +15°C° 0 mm 1 m/S 711 mmHg 84%
    23:00 +15°C° 0 mm 1 m/S 711 mmHg 86%

    Morgen, 24 Oktober, Mittwoch

    Zeit Temperatur Niederschläge Wind Luftdruck Luftfeuchtigkeit
    00:00 +15°C° 0 mm 1 m/S 710 mmHg 85%
    01:00 +15°C° 0 mm 1 m/S 710 mmHg 85%
    02:00 +14°C° 0 mm 1 m/S 710 mmHg 84%
    03:00 +14°C° 0 mm 1 m/S 709 mmHg 82%
    04:00 +14°C° 0 mm 1 m/S 709 mmHg 80%
    05:00 +14°C° 0 mm 1 m/S 708 mmHg 78%
    06:00 +15°C° 0 mm 1 m/S 708 mmHg 73%
    07:00 +16°C° 0 mm 2 m/S 708 mmHg 67%
    08:00 +18°C° 0 mm 2 m/S 708 mmHg 61%
    09:00 +19°C° 0.1 mm 3 m/S 707 mmHg 57%
    10:00 +21°C° 0.1 mm 4 m/S 707 mmHg 52%
    11:00 +22°C° 0.1 mm 5 m/S 707 mmHg 47%
    12:00 +22°C° 0.1 mm 6 m/S 706 mmHg 47%
    13:00 +22°C° 0.1 mm 7 m/S 705 mmHg 46%
    14:00 +22°C° 0.1 mm 7 m/S 705 mmHg 46%
    15:00 +21°C° 0.1 mm 6 m/S 704 mmHg 51%
    16:00 +20°C° 0.1 mm 5 m/S 704 mmHg 56%
    17:00 +19°C° 0.1 mm 3 m/S 703 mmHg 61%
    18:00 +18°C° 0.3 mm 3 m/S 703 mmHg 64%
    19:00 +18°C° 0.3 mm 3 m/S 703 mmHg 67%
    20:00 +17°C° 0.3 mm 2 m/S 703 mmHg 70%
    21:00 +17°C° 1.1 mm 2 m/S 703 mmHg 74%
    22:00 +16°C° 1.1 mm 2 m/S 703 mmHg 78%
    23:00 +16°C° 1.1 mm 2 m/S 702 mmHg 82%

    übermorgen, 25 Oktober, Donnerstag

    Zeit Temperatur Niederschläge Wind Luftdruck Luftfeuchtigkeit
    00:00 +16°C° 1.4 mm 3 m/S 702 mmHg 83%
    01:00 +14°C° 1.4 mm 3 m/S 702 mmHg 84%
    02:00 +14°C° 1.4 mm 3 m/S 701 mmHg 85%
    03:00 +14°C° 1.4 mm 3 m/S 701 mmHg 83%
    04:00 +14°C° 1.4 mm 3 m/S 701 mmHg 82%
    05:00 +13°C° 1.4 mm 4 m/S 701 mmHg 80%
    06:00 +13°C° 1.1 mm 4 m/S 702 mmHg 79%
    07:00 +12°C° 1.1 mm 4 m/S 703 mmHg 78%
    08:00 +11°C° 1.1 mm 4 m/S 704 mmHg 77%
    09:00 +11°C° 1.2 mm 4 m/S 705 mmHg 73%
    10:00 +10°C° 1.2 mm 4 m/S 705 mmHg 70%
    11:00 +10°C° 1.2 mm 3 m/S 706 mmHg 67%
    12:00 +10°C° 0.6 mm 4 m/S 706 mmHg 65%
    13:00 +10°C° 0.6 mm 4 m/S 707 mmHg 63%
    14:00 +10°C° 0.6 mm 4 m/S 707 mmHg 61%
    15:00 +9°C° 0.3 mm 3 m/S 708 mmHg 62%
    16:00 +9°C° 0.3 mm 3 m/S 708 mmHg 63%
    17:00 +8°C° 0.3 mm 3 m/S 709 mmHg 63%
    18:00 +8°C° 0 mm 2 m/S 710 mmHg 64%
    19:00 +7°C° 0 mm 2 m/S 710 mmHg 65%
    20:00 +8°C° 0 mm 1 m/S 711 mmHg 66%
    21:00 +8°C° 0 mm 1 m/S 711 mmHg 67%
    22:00 +7°C° 0 mm 1 m/S 711 mmHg 68%
    23:00 +7°C° 0 mm 1 m/S 712 mmHg 69%

    26 Oktober, Freitag

    Zeit Temperatur Niederschläge Wind Luftdruck Luftfeuchtigkeit
    00:00 +6°C° 0 mm 1 m/S 712 mmHg 70%
    01:00 +6°C° 0 mm 1 m/S 712 mmHg 71%
    02:00 +6°C° 0 mm 1 m/S 712 mmHg 72%
    03:00 +5°C° 0 mm 2 m/S 713 mmHg 72%
    04:00 +4°C° 0 mm 2 m/S 713 mmHg 73%
    05:00 +4°C° 0 mm 2 m/S 713 mmHg 73%
    06:00 +5°C° 0 mm 2 m/S 713 mmHg 69%
    07:00 +5°C° 0 mm 3 m/S 714 mmHg 65%
    08:00 +7°C° 0 mm 3 m/S 714 mmHg 61%
    09:00 +8°C° 0 mm 3 m/S 714 mmHg 56%
    10:00 +10°C° 0 mm 4 m/S 714 mmHg 50%
    11:00 +11°C° 0 mm 4 m/S 714 mmHg 45%
    12:00 +12°C° 0 mm 4 m/S 714 mmHg 43%
    13:00 +12°C° 0 mm 4 m/S 714 mmHg 42%
    14:00 +13°C° 0 mm 4 m/S 714 mmHg 41%
    15:00 +12°C° 0 mm 3 m/S 715 mmHg 45%
    16:00 +11°C° 0 mm 3 m/S 715 mmHg 49%
    17:00 +10°C° 0 mm 2 m/S 715 mmHg 52%
    18:00 +10°C° 0 mm 2 m/S 716 mmHg 54%
    19:00 +10°C° 0 mm 2 m/S 717 mmHg 56%
    20:00 +9°C° 0 mm 2 m/S 717 mmHg 58%
    21:00 +9°C° 0 mm 2 m/S 717 mmHg 60%
    22:00 +8°C° 0 mm 2 m/S 718 mmHg 61%
    23:00 +9°C° 0 mm 1 m/S 718 mmHg 63%

    27 Oktober, Samstag

    Zeit Temperatur Niederschläge Wind Luftdruck Luftfeuchtigkeit
    00:00 +9°C° 0 mm 1 m/S 718 mmHg 63%
    01:00 +9°C° 0 mm 1 m/S 718 mmHg 64%
    02:00 +8°C° 0 mm 1 m/S 718 mmHg 65%
    03:00 +7°C° 0 mm 2 m/S 718 mmHg 65%
    04:00 +7°C° 0 mm 2 m/S 719 mmHg 65%
    05:00 +7°C° 0 mm 2 m/S 719 mmHg 65%
    06:00 +8°C° 0 mm 2 m/S 719 mmHg 61%
    07:00 +9°C° 0 mm 2 m/S 719 mmHg 58%
    08:00 +10°C° 0 mm 2 m/S 719 mmHg 54%
    09:00 +13°C° 0 mm 2 m/S 719 mmHg 49%
    10:00 +13°C° 0 mm 3 m/S 719 mmHg 44%
    11:00 +16°C° 0 mm 3 m/S 719 mmHg 39%
    12:00 +17°C° 0 mm 3 m/S 718 mmHg 37%
    13:00 +17°C° 0 mm 3 m/S 718 mmHg 35%
    14:00 +18°C° 0 mm 3 m/S 718 mmHg 33%
    15:00 +17°C° 0 mm 2 m/S 718 mmHg 37%
    16:00 +15°C° 0 mm 2 m/S 718 mmHg 41%
    17:00 +14°C° 0 mm 1 m/S 717 mmHg 44%
    18:00 +14°C° 0 mm 1 m/S 718 mmHg 45%
    19:00 +13°C° 0 mm 1 m/S 718 mmHg 45%
    20:00 +13°C° 0 mm 2 m/S 718 mmHg 46%
    21:00 +12°C° 0 mm 2 m/S 718 mmHg 46%
    22:00 +12°C° 0 mm 2 m/S 718 mmHg 47%
    23:00 +12°C° 0 mm 2 m/S 718 mmHg 48%

    28 Oktober, Sonntag

    Zeit Temperatur Niederschläge Wind Luftdruck Luftfeuchtigkeit
    00:00 +10°C° 0 mm 2 m/S 718 mmHg 48%
    01:00 +10°C° 0 mm 2 m/S 718 mmHg 49%
    02:00 +10°C° 0 mm 2 m/S 718 mmHg 49%
    03:00 +10°C° 0 mm 2 m/S 718 mmHg 49%
    04:00 +10°C° 0 mm 2 m/S 718 mmHg 49%
    05:00 +9°C° 0 mm 2 m/S 718 mmHg 49%
    06:00 +12°C° 0 mm 2 m/S 718 mmHg 47%
    07:00 +13°C° 0 mm 2 m/S 718 mmHg 45%
    08:00 +14°C° 0 mm 2 m/S 718 mmHg 43%
    09:00 +16°C° 0 mm 2 m/S 718 mmHg 38%
    10:00 +18°C° 0 mm 2 m/S 718 mmHg 33%
    11:00 +20°C° 0 mm 2 m/S 718 mmHg 27%
    12:00 +21°C° 0 mm 2 m/S 718 mmHg 26%
    13:00 +22°C° 0 mm 1 m/S 718 mmHg 25%
    14:00 +23°C° 0 mm 1 m/S 717 mmHg 23%
    15:00 +21°C° 0 mm 1 m/S 717 mmHg 27%
    16:00 +19°C° 0 mm 1 m/S 717 mmHg 30%
    17:00 +18°C° 0 mm 1 m/S 717 mmHg 33%
    18:00 +16°C° 0 mm 1 m/S 717 mmHg 33%
    19:00 +16°C° 0 mm 1 m/S 717 mmHg 33%
    20:00 +15°C° 0 mm 1 m/S 717 mmHg 34%
    21:00 +15°C° 0 mm 1 m/S 716 mmHg 34%
    22:00 +14°C° 0 mm 1 m/S 716 mmHg 34%
    23:00 +14°C° 0 mm 1 m/S 716 mmHg 35%

    29 Oktober, Montag

    Zeit Temperatur Niederschläge Wind Luftdruck Luftfeuchtigkeit
    00:00 +14°C° 0 mm 1 m/S 716 mmHg 35%
    01:00 +14°C° 0 mm 1 m/S 716 mmHg 36%
    02:00 +13°C° 0 mm 2 m/S 716 mmHg 36%
    03:00 +13°C° 0 mm 2 m/S 715 mmHg 36%
    04:00 +13°C° 0 mm 2 m/S 715 mmHg 37%
    05:00 +13°C° 0 mm 2 m/S 715 mmHg 37%
    06:00 +14°C° 0 mm 2 m/S 715 mmHg 36%
    07:00 +15°C° 0 mm 2 m/S 715 mmHg 36%
    08:00 +16°C° 0 mm 2 m/S 715 mmHg 35%
    09:00 +18°C° 0 mm 2 m/S 715 mmHg 31%
    10:00 +20°C° 0 mm 2 m/S 715 mmHg 27%
    11:00 +24°C° 0 mm 2 m/S 715 mmHg 22%
    12:00 +24°C° 0 mm 2 m/S 715 mmHg 21%
    13:00 +25°C° 0 mm 2 m/S 715 mmHg 21%
    14:00 +25°C° 0 mm 2 m/S 714 mmHg 20%
    15:00 +23°C° 0 mm 2 m/S 714 mmHg 22%
    16:00 +20°C° 0 mm 2 m/S 714 mmHg 25%
    17:00 +20°C° 0 mm 1 m/S 713 mmHg 28%
    18:00 +18°C° 0 mm 2 m/S 713 mmHg 29%
    19:00 +17°C° 0 mm 2 m/S 713 mmHg 29%
    20:00 +17°C° 0 mm 2 m/S 713 mmHg 29%
    21:00 +16°C° 0 mm 2 m/S 713 mmHg 30%
    22:00 +16°C° 0 mm 2 m/S 713 mmHg 31%
    23:00 +15°C° 0 mm 2 m/S 713 mmHg 32%
    Mehr zeigen